Regional Weather Roundup
Issued by NWS

Home | Current Version | Previous Version | Graphics & Text | Print | Product List | Glossary On
Versions: 1 2 3 4 5 6 7 8 9 10 11 12 13 14 15 16 17 18 19 20 21 22 23 24 25 26 27 28 29 30 31 32 33 34 35 36 37 38 39 40 41 42 43 44 45 46 47 48 49 50
399
ASUS43 KFSD 210802
RWRSD

WEATHER ROUNDUP FOR SOUTH DAKOTA
NATIONAL WEATHER SERVICE SIOUX FALLS SD
200 AM CST TUE NOV 21 2017

NOTE: "FAIR" INDICATES FEW OR NO CLOUDS BELOW 12,000 FEET WITH NO
SIGNIFICANT WEATHER AND/OR OBSTRUCTIONS TO VISIBILITY.


SDZ001>005-009-010-012>017-210900-
NORTHWEST AND NORTH CENTRAL SOUTH DAKOTA

CITY           SKY/WX    TMP DP  RH WIND       PRES   REMARKS
BUFFALO          N/A     28  22  78 NW21      29.94R WCI  15
FAITH            N/A     31  23  72 NW18      29.95R WCI  19
MOBRIDGE       PTCLDY    23   7  50 N24G36    29.92R WCI   7
$$

SDZ012>016-024>037-041>051-057-063-072>074-210900-
SOUTHWEST AND SOUTH CENTRAL SOUTH DAKOTA

CITY           SKY/WX    TMP DP  RH WIND       PRES   REMARKS
RAPID CTY ARPT LGT SNOW  30  27  88 N24G33    29.99R FOG     WCI  16
PIERRE         FLURRIES  36  22  56 NW21G30   29.91R
CUSTER         FLURRIES  35  24  64 CALM      29.89R
ELLSWORTH AFB  LGT SNOW  30  30 100 N24G30    29.99  FOG     WCI  16
PHILIP         LGT SNOW  32  30  92 NW15G23   29.99R FOG     WCI  22
PINE RIDGE     CLOUDY    39  26  59 NE15G24   29.93R
SPEARFISH      LGT SNOW  27  25  93 NW10G17   30.03R WCI  17
WINNER         CLOUDY    41  24  51 N23G30    29.92R
$$

SDZ004>011-016>023-039-040-210900-
NORTHEAST SOUTH DAKOTA

CITY           SKY/WX    TMP DP  RH WIND       PRES   REMARKS
ABERDEEN       CLOUDY    22   6  50 NW31G40   29.90R WCI   4
WATERTOWN      MOCLDY    30  17  58 NW21G28   29.76R WCI  17
BROOKINGS      CLOUDY    35  18  49 NW24      29.77R WCI  23
SISSETON         N/A     24  11  57 NW31G43   29.79R WCI   7
$$

SDZ017-020-022-023-036>040-048>070-210900-
SOUTHEAST SOUTH DAKOTA

CITY           SKY/WX    TMP DP  RH WIND       PRES   REMARKS
SIOUX FALLS    CLOUDY    38  19  46 NW10      29.81R
HURON          CLOUDY    37  15  40 NW21G30   29.85R
CHAMBERLAIN    FLURRIES  37  32  81 NW15G21   29.91R
MITCHELL       CLOUDY    40  24  53 NW10      29.86R
YANKTON        CLOUDY    39  20  46 N17       29.83R
$$

ABBREVIATIONS USED IN REMARKS
   TC - TEMPERATURE IN CELSIUS
  WCI - WIND CHILL INDEX
   HX - HEAT INDEX
  VSB - VISIBILITY





USA.gov is the U.S. government's official web portal to all federal, state and local government web resources and services.